| time (UTC) | temp C | wind direction | speed KPH | gust KPH | rain 1hr cm | rain 24hr cm | rain mn cm | humidity % | barometer mb |
| 20260507110301 | 21 | 266 | 0.0 | 0.0 | 0.00 | 0.00 | 0.00 | 87 | 1016.7 |
| 20260507105758 | 21 | 263 | 0.0 | 0.0 | 0.00 | 0.00 | 0.00 | 87 | 1016.8 |
| 20260507105254 | 21 | 266 | 3.2 | 3.2 | 0.00 | 0.00 | 0.00 | 87 | 1016.5 |
| 20260507104752 | 21 | 268 | 0.0 | 0.0 | 0.00 | 0.00 | 0.00 | 88 | 1016.7 |
| 20260507104248 | 21 | 270 | 0.0 | 0.0 | 0.00 | 0.00 | 0.00 | 88 | 1016.8 |
| 20260507103744 | 21 | 270 | 0.0 | 0.0 | 0.00 | 0.00 | 0.00 | 87 | 1016.8 |
| 20260507103240 | 21 | 270 | 0.0 | 0.0 | 0.00 | 0.00 | 0.00 | 87 | 1016.8 |
| 20260507102737 | 21 | 270 | 0.0 | 0.0 | 0.00 | 0.00 | 0.00 | 87 | 1016.9 |
| 20260507102233 | 21 | 266 | 0.0 | 0.0 | 0.00 | 0.00 | 0.00 | 87 | 1016.8 |
| 20260507101729 | 21 | 266 | 0.0 | 0.0 | 0.00 | 0.00 | 0.00 | 87 | 1016.8 |
| 20260507101225 | 21 | 273 | 0.0 | 0.0 | 0.00 | 0.00 | 0.00 | 87 | 1016.8 |
| 20260507100722 | 21 | 263 | 0.0 | 1.6 | 0.00 | 0.00 | 0.00 | 87 | 1016.6 |
| 20260507100221 | 21 | 265 | 0.0 | 0.0 | 0.00 | 0.00 | 0.00 | 86 | 1016.7 |
| 20260507095718 | 22 | 269 | 0.0 | 0.0 | 0.00 | 0.00 | 0.00 | 86 | 1016.5 |
| 20260507095215 | 22 | 268 | 0.0 | 0.0 | 0.00 | 0.00 | 0.00 | 86 | 1016.5 |
| 20260507094711 | 22 | 267 | 0.0 | 0.0 | 0.00 | 0.00 | 0.00 | 86 | 1016.5 |
| 20260507094209 | 22 | 269 | 0.0 | 0.0 | 0.00 | 0.00 | 0.00 | 86 | 1016.4 |
| 20260507093705 | 22 | 274 | 3.2 | 3.2 | 0.00 | 0.00 | 0.00 | 86 | 1016.6 |
| 20260507093204 | 22 | 265 | 0.0 | 0.0 | 0.00 | 0.00 | 0.00 | 86 | 1016.2 |
| 20260507092700 | 22 | 261 | 1.6 | 1.6 | 0.00 | 0.00 | 0.00 | 86 | 1016.4 |
| 20260507092151 | 22 | 270 | 1.6 | 1.6 | 0.00 | 0.00 | 0.00 | 86 | 1016.5 |
| 20260507091647 | 22 | 264 | 1.6 | 1.6 | 0.00 | 0.00 | 0.00 | 85 | 1016.5 |
| 20260507091144 | 22 | 267 | 0.0 | 1.6 | 0.00 | 0.00 | 0.00 | 85 | 1016.2 |
| 20260507090639 | 22 | 266 | 0.0 | 1.6 | 0.00 | 0.00 | 0.00 | 85 | 1016.1 |
| 20260507090137 | 22 | 263 | 1.6 | 1.6 | 0.00 | 0.00 | 0.00 | 85 | 1015.8 |
| 20260507085634 | 22 | 263 | 1.6 | 1.6 | 0.00 | 0.00 | 0.00 | 85 | 1015.8 |
| 20260507085131 | 22 | 262 | 0.0 | 1.6 | 0.00 | 0.00 | 0.00 | 85 | 1015.5 |
| 20260507084627 | 22 | 257 | 0.0 | 1.6 | 0.00 | 0.00 | 0.00 | 85 | 1015.6 |
| 20260507084124 | 22 | 262 | 0.0 | 0.0 | 0.00 | 0.00 | 0.00 | 85 | 1015.6 |
| 20260507083621 | 22 | 262 | 0.0 | 0.0 | 0.00 | 0.00 | 0.00 | 85 | 1015.6 |
| 20260507083118 | 22 | 266 | 0.0 | 1.6 | 0.00 | 0.00 | 0.00 | 85 | 1015.4 |
| 20260507082614 | 21 | 256 | 3.2 | 3.2 | 0.00 | 0.00 | 0.00 | 85 | 1015.5 |
| 20260507082110 | 21 | 258 | 0.0 | 1.6 | 0.00 | 0.00 | 0.00 | 85 | 1015.5 |
| 20260507081607 | 21 | 262 | 1.6 | 1.6 | 0.00 | 0.00 | 0.00 | 85 | 1015.3 |
| 20260507081104 | 21 | 231 | 1.6 | 3.2 | 0.00 | 0.00 | 0.00 | 85 | 1015.5 |
| 20260507080600 | 21 | 259 | 1.6 | 1.6 | 0.00 | 0.00 | 0.00 | 85 | 1015.6 |
| 20260507080056 | 21 | 267 | 0.0 | 1.6 | 0.00 | 0.00 | 0.00 | 85 | 1015.8 |
| 20260507075551 | 22 | 270 | 1.6 | 1.6 | 0.00 | 0.00 | 0.00 | 85 | 1015.6 |
| 20260507075048 | 22 | 251 | 1.6 | 1.6 | 0.00 | 0.00 | 0.00 | 85 | 1015.9 |
| 20260507074545 | 22 | 253 | 1.6 | 1.6 | 0.00 | 0.00 | 0.00 | 85 | 1015.8 |
| 20260507074043 | 22 | 256 | 3.2 | 3.2 | 0.00 | 0.00 | 0.00 | 84 | 1015.8 |
| 20260507073539 | 22 | 262 | 0.0 | 0.0 | 0.00 | 0.00 | 0.00 | 83 | 1016.0 |
| 20260507073036 | 22 | 260 | 0.0 | 0.0 | 0.00 | 0.00 | 0.00 | 83 | 1015.8 |
| 20260507072533 | 22 | 268 | 0.0 | 0.0 | 0.00 | 0.00 | 0.00 | 83 | 1016.1 |
| 20260507072030 | 22 | 262 | 0.0 | 0.0 | 0.00 | 0.00 | 0.00 | 82 | 1016.1 |
| 20260507071528 | 22 | 261 | 0.0 | 0.0 | 0.00 | 0.00 | 0.00 | 82 | 1016.3 |
| 20260507071024 | 22 | 264 | 0.0 | 0.0 | 0.00 | 0.00 | 0.00 | 82 | 1016.4 |
| 20260507070521 | 22 | 262 | 1.6 | 1.6 | 0.00 | 0.00 | 0.00 | 81 | 1016.5 |
| 20260507070018 | 22 | 263 | 1.6 | 1.6 | 0.00 | 0.00 | 0.00 | 81 | 1016.2 |
| 20260507065514 | 22 | 261 | 0.0 | 0.0 | 0.00 | 0.00 | 0.00 | 81 | 1016.3 |
| 20260507065012 | 22 | 260 | 0.0 | 0.0 | 0.00 | 0.00 | 0.00 | 81 | 1016.4 |
| 20260507064509 | 22 | 260 | 0.0 | 0.0 | 0.00 | 0.00 | 0.00 | 82 | 1016.4 |
| 20260507064008 | 22 | 262 | 0.0 | 0.0 | 0.00 | 0.00 | 0.00 | 81 | 1016.7 |
| 20260507063504 | 22 | 263 | 0.0 | 0.0 | 0.00 | 0.00 | 0.00 | 81 | 1016.7 |
| 20260507063002 | 22 | 263 | 0.0 | 0.0 | 0.00 | 0.00 | 0.00 | 81 | 1016.7 |
| 20260507062458 | 22 | 261 | 0.0 | 0.0 | 0.00 | 0.00 | 0.00 | 81 | 1016.9 |
| 20260507061956 | 22 | 260 | 0.0 | 0.0 | 0.00 | 0.00 | 0.00 | 80 | 1016.7 |
| 20260507061453 | 22 | 262 | 0.0 | 0.0 | 0.00 | 0.00 | 0.00 | 80 | 1017.1 |
| 20260507060952 | 22 | 263 | 0.0 | 0.0 | 0.00 | 0.00 | 0.00 | 80 | 1017.1 |
| 20260507060449 | 22 | 262 | 0.0 | 0.0 | 0.00 | 0.00 | 0.00 | 80 | 1017.3 |
| 20260507055945 | 22 | 263 | 0.0 | 0.0 | 0.00 | 0.00 | 0.00 | 79 | 1017.5 |
| 20260507055440 | 22 | 263 | 0.0 | 0.0 | 0.00 | 0.00 | 0.00 | 79 | 1017.3 |
| 20260507054937 | 22 | 263 | 0.0 | 0.0 | 0.00 | 0.00 | 0.00 | 79 | 1017.6 |
| 20260507054433 | 22 | 263 | 0.0 | 0.0 | 0.00 | 0.00 | 0.00 | 78 | 1017.3 |
| 20260507053930 | 23 | 263 | 0.0 | 0.0 | 0.00 | 0.00 | 0.00 | 77 | 1017.5 |
| 20260507053422 | 22 | 263 | 0.0 | 0.0 | 0.00 | 0.00 | 0.00 | 77 | 1017.5 |
| 20260507052921 | 23 | 263 | 0.0 | 0.0 | 0.00 | 0.00 | 0.00 | 77 | 1017.7 |
| 20260507052418 | 23 | 263 | 0.0 | 0.0 | 0.00 | 0.00 | 0.00 | 77 | 1017.8 |
| 20260507051915 | 23 | 263 | 0.0 | 0.0 | 0.00 | 0.00 | 0.00 | 76 | 1017.8 |
| 20260507051413 | 23 | 262 | 0.0 | 0.0 | 0.00 | 0.00 | 0.00 | 76 | 1017.7 |
| 20260507050909 | 23 | 263 | 0.0 | 0.0 | 0.00 | 0.00 | 0.00 | 75 | 1017.7 |
| 20260507050406 | 23 | 263 | 0.0 | 0.0 | 0.00 | 0.00 | 0.00 | 75 | 1017.8 |
| 20260507045902 | 23 | 263 | 0.0 | 0.0 | 0.00 | 0.00 | 0.00 | 74 | 1017.5 |
| 20260507045359 | 23 | 260 | 0.0 | 1.6 | 0.00 | 0.00 | 0.00 | 74 | 1017.4 |
| 20260507044857 | 23 | 260 | 0.0 | 0.0 | 0.00 | 0.00 | 0.00 | 73 | 1017.3 |
| 20260507044353 | 23 | 261 | 0.0 | 0.0 | 0.00 | 0.00 | 0.00 | 73 | 1017.6 |
| 20260507043849 | 23 | 260 | 0.0 | 0.0 | 0.00 | 0.00 | 0.00 | 72 | 1017.7 |
| 20260507043346 | 23 | 258 | 0.0 | 1.6 | 0.00 | 0.00 | 0.00 | 72 | 1017.6 |
| 20260507042842 | 23 | 264 | 0.0 | 0.0 | 0.00 | 0.00 | 0.00 | 71 | 1017.8 |
| 20260507042338 | 23 | 268 | 0.0 | 0.0 | 0.00 | 0.00 | 0.00 | 71 | 1017.9 |
| 20260507041835 | 23 | 257 | 0.0 | 0.0 | 0.00 | 0.00 | 0.00 | 71 | 1018.1 |
| 20260507041331 | 23 | 256 | 0.0 | 0.0 | 0.00 | 0.00 | 0.00 | 71 | 1018.0 |
| 20260507040829 | 23 | 255 | 0.0 | 0.0 | 0.00 | 0.00 | 0.00 | 70 | 1017.9 |
| 20260507040325 | 24 | 256 | 0.0 | 0.0 | 0.00 | 0.00 | 0.00 | 70 | 1018.1 |
| 20260507035821 | 24 | 255 | 1.6 | 1.6 | 0.00 | 0.00 | 0.00 | 69 | 1018.1 |
| 20260507035316 | 24 | 252 | 0.0 | 0.0 | 0.00 | 0.00 | 0.00 | 69 | 1018.0 |
| 20260507034814 | 24 | 254 | 0.0 | 1.6 | 0.00 | 0.00 | 0.00 | 69 | 1018.0 |
| 20260507034311 | 24 | 252 | 0.0 | 1.6 | 0.00 | 0.00 | 0.00 | 69 | 1017.9 |
| 20260507033809 | 24 | 252 | 0.0 | 0.0 | 0.00 | 0.00 | 0.00 | 69 | 1017.8 |
| 20260507033306 | 24 | 253 | 1.6 | 1.6 | 0.00 | 0.00 | 0.00 | 69 | 1017.8 |
| 20260507032803 | 24 | 253 | 0.0 | 0.0 | 0.00 | 0.00 | 0.00 | 69 | 1017.8 |
| 20260507032259 | 24 | 255 | 0.0 | 0.0 | 0.00 | 0.00 | 0.00 | 69 | 1017.8 |
| 20260507031756 | 24 | 252 | 0.0 | 1.6 | 0.00 | 0.00 | 0.00 | 68 | 1017.9 |
| 20260507031252 | 24 | 253 | 0.0 | 0.0 | 0.00 | 0.00 | 0.00 | 67 | 1017.9 |
| 20260507030744 | 24 | 252 | 0.0 | 0.0 | 0.00 | 0.00 | 0.00 | 67 | 1017.9 |
| 20260507030241 | 25 | 252 | 0.0 | 0.0 | 0.00 | 0.00 | 0.00 | 67 | 1018.1 |
| 20260507025738 | 25 | 252 | 1.6 | 1.6 | 0.00 | 0.00 | 0.00 | 66 | 1017.8 |
| 20260507025235 | 24 | 252 | 0.0 | 1.6 | 0.00 | 0.00 | 0.00 | 66 | 1018.0 |
| 20260507024733 | 25 | 252 | 1.6 | 3.2 | 0.00 | 0.00 | 0.00 | 66 | 1017.8 |
| 20260507024230 | 25 | 255 | 0.0 | 1.6 | 0.00 | 0.00 | 0.00 | 65 | 1017.9 |
| 20260507023725 | 25 | 253 | 0.0 | 0.0 | 0.00 | 0.00 | 0.00 | 66 | 1017.9 |
| 20260507023223 | 25 | 250 | 1.6 | 1.6 | 0.00 | 0.00 | 0.00 | 65 | 1017.9 |
| 20260507022720 | 25 | 253 | 1.6 | 1.6 | 0.00 | 0.00 | 0.00 | 65 | 1017.8 |
| 20260507022216 | 25 | 252 | 1.6 | 1.6 | 0.00 | 0.00 | 0.00 | 64 | 1017.8 |
| 20260507021712 | 25 | 258 | 0.0 | 0.0 | 0.00 | 0.00 | 0.00 | 65 | 1017.9 |
| 20260507021208 | 25 | 258 | 0.0 | 0.0 | 0.00 | 0.00 | 0.00 | 65 | 1018.0 |
| 20260507020706 | 25 | 254 | 0.0 | 0.0 | 0.00 | 0.00 | 0.00 | 64 | 1017.9 |
| 20260507020201 | 25 | 255 | 0.0 | 0.0 | 0.00 | 0.00 | 0.00 | 64 | 1018.0 |
| 20260507015700 | 25 | 254 | 0.0 | 0.0 | 0.00 | 0.00 | 0.00 | 64 | 1017.6 |
| 20260507015157 | 25 | 252 | 1.6 | 1.6 | 0.00 | 0.00 | 0.00 | 64 | 1017.6 |
| 20260507014654 | 25 | 257 | 0.0 | 0.0 | 0.00 | 0.00 | 0.00 | 64 | 1017.7 |
| 20260507014150 | 25 | 252 | 0.0 | 0.0 | 0.00 | 0.00 | 0.00 | 63 | 1017.8 |
| 20260507013647 | 25 | 251 | 1.6 | 1.6 | 0.00 | 0.00 | 0.00 | 63 | 1017.7 |
| 20260507013144 | 25 | 250 | 1.6 | 1.6 | 0.00 | 0.00 | 0.00 | 63 | 1017.8 |
| 20260507012642 | 26 | 266 | 0.0 | 1.6 | 0.00 | 0.00 | 0.00 | 64 | 1017.9 |
| 20260507012137 | 25 | 255 | 1.6 | 1.6 | 0.00 | 0.00 | 0.00 | 64 | 1017.8 |
| 20260507011635 | 25 | 250 | 0.0 | 1.6 | 0.00 | 0.00 | 0.00 | 65 | 1017.9 |
| 20260507011131 | 26 | 251 | 1.6 | 1.6 | 0.00 | 0.00 | 0.00 | 65 | 1017.7 |
| 20260507010626 | 26 | 254 | 0.0 | 0.0 | 0.00 | 0.00 | 0.00 | 66 | 1017.8 |
| 20260507010122 | 26 | 259 | 1.6 | 3.2 | 0.00 | 0.00 | 0.00 | 66 | 1017.6 |
| 20260507005620 | 26 | 247 | 0.0 | 1.6 | 0.00 | 0.00 | 0.00 | 66 | 1017.8 |
| 20260507005116 | 26 | 256 | 0.0 | 1.6 | 0.00 | 0.00 | 0.00 | 65 | 1017.7 |
| 20260507004613 | 26 | 258 | 0.0 | 0.0 | 0.00 | 0.00 | 0.00 | 65 | 1017.6 |
| 20260507004110 | 26 | 254 | 1.6 | 3.2 | 0.00 | 0.00 | 0.00 | 65 | 1017.7 |
| 20260507003606 | 26 | 256 | 1.6 | 3.2 | 0.00 | 0.00 | 0.00 | 65 | 1017.4 |
| 20260507003101 | 26 | 259 | 0.0 | 1.6 | 0.00 | 0.00 | 0.00 | 65 | 1017.1 |
| 20260507002558 | 26 | 274 | 0.0 | 0.0 | 0.00 | 0.00 | 0.00 | 65 | 1017.3 |
| 20260507002054 | 26 | 277 | 0.0 | 0.0 | 0.00 | 0.00 | 0.00 | 66 | 1017.4 |
| 20260507001551 | 26 | 261 | 0.0 | 1.6 | 0.00 | 0.00 | 0.00 | 65 | 1017.0 |
| 20260507001048 | 26 | 263 | 0.0 | 0.0 | 0.00 | 0.00 | 0.00 | 65 | 1016.9 |
| 20260507000544 | 26 | 269 | 0.0 | 0.0 | 0.00 | 0.00 | 0.00 | 65 | 1016.9 |
| 20260507000040 | 26 | 266 | 0.0 | 0.0 | 0.00 | 0.00 | 0.00 | 65 | 1016.7 |
| 20260506235537 | 26 | 258 | 0.0 | 0.0 | 0.00 | 0.00 | 0.00 | 65 | 1017.0 |
| 20260506235027 | 27 | 287 | 0.0 | 1.6 | 0.00 | 0.00 | 0.00 | 65 | 1016.9 |
| 20260506234525 | 27 | 275 | 4.8 | 8.0 | 0.00 | 0.00 | 0.00 | 63 | 1016.8 |
| 20260506234022 | 27 | 264 | 0.0 | 0.0 | 0.00 | 0.00 | 0.00 | 64 | 1016.7 |
| 20260506233518 | 27 | 272 | 0.0 | 0.0 | 0.00 | 0.00 | 0.00 | 63 | 1016.5 |
| 20260506233016 | 28 | 240 | 4.8 | 4.8 | 0.00 | 0.00 | 0.00 | 62 | 1016.5 |
| 20260506232512 | 28 | 256 | 1.6 | 1.6 | 0.00 | 0.00 | 0.00 | 61 | 1016.6 |
| 20260506232007 | 28 | 259 | 1.6 | 3.2 | 0.00 | 0.00 | 0.00 | 61 | 1016.8 |
| 20260506231505 | 29 | 255 | 1.6 | 3.2 | 0.00 | 0.00 | 0.00 | 59 | 1016.6 |
| 20260506231003 | 29 | 258 | 1.6 | 3.2 | 0.00 | 0.00 | 0.00 | 60 | 1016.5 |
| 20260506230458 | 29 | 270 | 1.6 | 1.6 | 0.00 | 0.00 | 0.00 | 59 | 1016.8 |
| 20260506225955 | 29 | 276 | 0.0 | 0.0 | 0.00 | 0.00 | 0.00 | 62 | 1016.5 |
| 20260506225452 | 30 | 283 | 1.6 | 1.6 | 0.00 | 0.00 | 0.00 | 61 | 1016.5 |
| 20260506224949 | 30 | 310 | 1.6 | 1.6 | 0.00 | 0.00 | 0.00 | 60 | 1016.6 |
| 20260506224446 | 29 | 261 | 0.0 | 0.0 | 0.00 | 0.00 | 0.00 | 61 | 1016.6 |
| 20260506223942 | 29 | 282 | 0.0 | 0.0 | 0.00 | 0.00 | 0.00 | 62 | 1016.5 |
| 20260506223438 | 30 | 299 | 0.0 | 1.6 | 0.00 | 0.00 | 0.00 | 60 | 1016.9 |
| 20260506222936 | 31 | 236 | 1.6 | 1.6 | 0.00 | 0.00 | 0.00 | 59 | 1016.6 |
| 20260506222432 | 31 | 273 | 0.0 | 0.0 | 0.00 | 0.00 | 0.00 | 59 | 1016.5 |
| 20260506221929 | 31 | 272 | 0.0 | 1.6 | 0.00 | 0.00 | 0.00 | 55 | 1016.5 |
| 20260506221426 | 32 | 270 | 0.0 | 1.6 | 0.00 | 0.00 | 0.00 | 55 | 1016.3 |
| 20260506220924 | 31 | 269 | 0.0 | 0.0 | 0.00 | 0.00 | 0.00 | 55 | 1016.5 |
| 20260506220419 | 32 | 250 | 0.0 | 1.6 | 0.00 | 0.00 | 0.00 | 53 | 1016.5 |
| 20260506215916 | 33 | 229 | 1.6 | 3.2 | 0.00 | 0.00 | 0.00 | 47 | 1016.5 |
| 20260506215412 | 33 | 268 | 3.2 | 4.8 | 0.00 | 0.00 | 0.00 | 40 | 1016.6 |
| 20260506214902 | 34 | 264 | 0.0 | 0.0 | 0.00 | 0.00 | 0.00 | 40 | 1016.6 |
| 20260506214359 | 33 | 250 | 6.4 | 8.0 | 0.00 | 0.00 | 0.00 | 39 | 1016.4 |
| 20260506213857 | 33 | 257 | 0.0 | 1.6 | 0.00 | 0.00 | 0.00 | 40 | 1016.6 |
| 20260506213354 | 33 | 248 | 1.6 | 3.2 | 0.00 | 0.00 | 0.00 | 40 | 1016.7 |
| 20260506212852 | 33 | 268 | 1.6 | 1.6 | 0.00 | 0.00 | 0.00 | 39 | 1016.5 |
| 20260506212347 | 33 | 241 | 3.2 | 3.2 | 0.00 | 0.00 | 0.00 | 39 | 1016.6 |
| 20260506211842 | 33 | 251 | 3.2 | 3.2 | 0.00 | 0.00 | 0.00 | 40 | 1016.7 |
| 20260506211338 | 33 | 290 | 1.6 | 1.6 | 0.00 | 0.00 | 0.00 | 39 | 1016.8 |
| 20260506210836 | 33 | 270 | 4.8 | 8.0 | 0.00 | 0.00 | 0.00 | 39 | 1016.9 |
| 20260506210332 | 34 | 261 | 8.0 | 12.9 | 0.00 | 0.00 | 0.00 | 38 | 1016.6 |
| 20260506205830 | 33 | 340 | 0.0 | 1.6 | 0.00 | 0.00 | 0.00 | 42 | 1017.0 |
| 20260506205326 | 33 | 271 | 0.0 | 0.0 | 0.00 | 0.00 | 0.00 | 41 | 1016.9 |
| 20260506204822 | 33 | 259 | 1.6 | 3.2 | 0.00 | 0.00 | 0.00 | 41 | 1017.0 |
| 20260506204320 | 33 | 271 | 1.6 | 1.6 | 0.00 | 0.00 | 0.00 | 41 | 1016.8 |
| 20260506203818 | 33 | 246 | 3.2 | 8.0 | 0.00 | 0.00 | 0.00 | 40 | 1016.7 |
| 20260506203315 | 33 | 274 | 1.6 | 1.6 | 0.00 | 0.00 | 0.00 | 41 | 1016.9 |
| 20260506202811 | 33 | 250 | 1.6 | 8.0 | 0.00 | 0.00 | 0.00 | 40 | 1017.0 |
| 20260506202308 | 33 | 305 | 4.8 | 4.8 | 0.00 | 0.00 | 0.00 | 41 | 1016.9 |
| 20260506201805 | 33 | 280 | 1.6 | 1.6 | 0.00 | 0.00 | 0.00 | 40 | 1017.0 |
| 20260506201302 | 33 | 274 | 0.0 | 1.6 | 0.00 | 0.00 | 0.00 | 43 | 1017.1 |
| 20260506200759 | 33 | 257 | 0.0 | 1.6 | 0.00 | 0.00 | 0.00 | 42 | 1017.2 |
| 20260506200249 | 33 | 278 | 6.4 | 8.0 | 0.00 | 0.00 | 0.00 | 42 | 1017.1 |
| 20260506195746 | 33 | 281 | 4.8 | 8.0 | 0.00 | 0.00 | 0.00 | 42 | 1017.2 |
| 20260506195242 | 32 | 258 | 0.0 | 0.0 | 0.00 | 0.00 | 0.00 | 45 | 1017.4 |
| 20260506194740 | 32 | 283 | 3.2 | 3.2 | 0.00 | 0.00 | 0.00 | 43 | 1017.6 |
| 20260506194236 | 33 | 275 | 4.8 | 4.8 | 0.00 | 0.00 | 0.00 | 43 | 1017.5 |
| 20260506193734 | 33 | 304 | 3.2 | 3.2 | 0.00 | 0.00 | 0.00 | 44 | 1017.6 |
| 20260506193231 | 33 | 254 | 3.2 | 3.2 | 0.00 | 0.00 | 0.00 | 41 | 1017.8 |
| 20260506192727 | 32 | 265 | 1.6 | 4.8 | 0.00 | 0.00 | 0.00 | 44 | 1017.6 |
| 20260506192224 | 32 | 257 | 4.8 | 4.8 | 0.00 | 0.00 | 0.00 | 44 | 1017.8 |
| 20260506191721 | 32 | 265 | 0.0 | 0.0 | 0.00 | 0.00 | 0.00 | 44 | 1017.9 |
| 20260506191217 | 32 | 271 | 3.2 | 3.2 | 0.00 | 0.00 | 0.00 | 44 | 1017.9 |
| 20260506190714 | 32 | 250 | 1.6 | 4.8 | 0.00 | 0.00 | 0.00 | 45 | 1018.0 |
| 20260506190210 | 32 | 261 | 4.8 | 8.0 | 0.00 | 0.00 | 0.00 | 44 | 1018.1 |
| 20260506185708 | 32 | 307 | 4.8 | 4.8 | 0.00 | 0.00 | 0.00 | 45 | 1018.2 |
| 20260506185204 | 32 | 247 | 1.6 | 3.2 | 0.00 | 0.00 | 0.00 | 45 | 1018.2 |
| 20260506184702 | 32 | 254 | 1.6 | 3.2 | 0.00 | 0.00 | 0.00 | 45 | 1018.1 |
| 20260506184159 | 32 | 263 | 0.0 | 0.0 | 0.00 | 0.00 | 0.00 | 46 | 1018.4 |
| 20260506183655 | 32 | 261 | 0.0 | 0.0 | 0.00 | 0.00 | 0.00 | 46 | 1018.5 |
| 20260506183151 | 31 | 250 | 1.6 | 4.8 | 0.00 | 0.00 | 0.00 | 47 | 1018.5 |
| 20260506182649 | 32 | 267 | 1.6 | 1.6 | 0.00 | 0.00 | 0.00 | 47 | 1018.7 |
| 20260506182146 | 31 | 282 | 0.0 | 1.6 | 0.00 | 0.00 | 0.00 | 48 | 1018.5 |
| 20260506181644 | 31 | 240 | 1.6 | 3.2 | 0.00 | 0.00 | 0.00 | 48 | 1018.6 |
| 20260506181141 | 31 | 262 | 1.6 | 3.2 | 0.00 | 0.00 | 0.00 | 47 | 1018.6 |
| 20260506180638 | 31 | 269 | 1.6 | 4.8 | 0.00 | 0.00 | 0.00 | 48 | 1018.5 |
| 20260506180134 | 31 | 269 | 3.2 | 3.2 | 0.00 | 0.00 | 0.00 | 48 | 1018.7 |
| 20260506175630 | 31 | 314 | 4.8 | 4.8 | 0.00 | 0.00 | 0.00 | 50 | 1018.7 |
| 20260506175126 | 31 | 259 | 1.6 | 1.6 | 0.00 | 0.00 | 0.00 | 50 | 1018.5 |
| 20260506174626 | 31 | 284 | 3.2 | 4.8 | 0.00 | 0.00 | 0.00 | 49 | 1018.6 |
| 20260506174122 | 30 | 234 | 4.8 | 8.0 | 0.00 | 0.00 | 0.00 | 52 | 1018.8 |
| 20260506173620 | 30 | 263 | 4.8 | 8.0 | 0.00 | 0.00 | 0.00 | 52 | 1019.1 |
| 20260506173116 | 30 | 257 | 6.4 | 9.7 | 0.00 | 0.00 | 0.00 | 53 | 1019.2 |
| 20260506172613 | 30 | 259 | 1.6 | 4.8 | 0.00 | 0.00 | 0.00 | 53 | 1019.3 |
| 20260506172109 | 30 | 250 | 3.2 | 3.2 | 0.00 | 0.00 | 0.00 | 52 | 1019.5 |
| 20260506171607 | 30 | 262 | 1.6 | 1.6 | 0.00 | 0.00 | 0.00 | 56 | 1019.3 |
| 20260506171105 | 30 | 269 | 0.0 | 1.6 | 0.00 | 0.00 | 0.00 | 54 | 1019.4 |
| 20260506170601 | 30 | 267 | 0.0 | 0.0 | 0.00 | 0.00 | 0.00 | 54 | 1019.4 |
| 20260506170053 | 30 | 251 | 1.6 | 3.2 | 0.00 | 0.00 | 0.00 | 55 | 1019.5 |
| 20260506165551 | 30 | 249 | 1.6 | 1.6 | 0.00 | 0.00 | 0.00 | 56 | 1019.4 |
| 20260506165042 | 29 | 327 | 3.2 | 4.8 | 0.00 | 0.00 | 0.00 | 56 | 1019.8 |
| 20260506164539 | 29 | 294 | 1.6 | 1.6 | 0.00 | 0.00 | 0.00 | 57 | 1019.6 |
| 20260506164036 | 29 | 246 | 4.8 | 8.0 | 0.00 | 0.00 | 0.00 | 56 | 1019.8 |
| 20260506163531 | 29 | 248 | 4.8 | 9.7 | 0.00 | 0.00 | 0.00 | 57 | 1019.9 |
| 20260506163027 | 28 | 230 | 4.8 | 4.8 | 0.00 | 0.00 | 0.00 | 56 | 1019.8 |
| 20260506162523 | 28 | 264 | 4.8 | 4.8 | 0.00 | 0.00 | 0.00 | 58 | 1019.9 |
| 20260506162015 | 28 | 232 | 1.6 | 1.6 | 0.00 | 0.00 | 0.00 | 58 | 1019.7 |
| 20260506161513 | 28 | 264 | 1.6 | 1.6 | 0.00 | 0.00 | 0.00 | 58 | 1020.0 |
| 20260506161009 | 28 | 241 | 3.2 | 4.8 | 0.00 | 0.00 | 0.00 | 60 | 1019.9 |
| 20260506160507 | 28 | 222 | 1.6 | 3.2 | 0.00 | 0.00 | 0.00 | 60 | 1019.9 |
| 20260506160004 | 27 | 246 | 1.6 | 1.6 | 0.00 | 0.00 | 0.00 | 60 | 1019.8 |
| 20260506155502 | 27 | 258 | 0.0 | 0.0 | 0.00 | 0.00 | 0.00 | 61 | 1019.7 |
| 20260506153634 | 27 | 259 | 6.4 | 8.0 | 0.00 | 0.00 | 0.00 | 62 | 1019.9 |
| 20260506153131 | 27 | 233 | 1.6 | 1.6 | 0.00 | 0.00 | 0.00 | 64 | 1020.0 |
| 20260506152628 | 27 | 263 | 1.6 | 3.2 | 0.00 | 0.00 | 0.00 | 62 | 1020.0 |
| 20260506152126 | 27 | 248 | 3.2 | 4.8 | 0.00 | 0.00 | 0.00 | 64 | 1019.8 |
| 20260506151624 | 26 | 225 | 1.6 | 3.2 | 0.00 | 0.00 | 0.00 | 66 | 1019.8 |
| 20260506151121 | 26 | 273 | 3.2 | 4.8 | 0.00 | 0.00 | 0.00 | 67 | 1019.8 |
| 20260506150618 | 26 | 258 | 1.6 | 3.2 | 0.00 | 0.00 | 0.00 | 67 | 1019.6 |
| 20260506150115 | 26 | 217 | 3.2 | 4.8 | 0.00 | 0.00 | 0.00 | 66 | 1019.8 |
| 20260506145612 | 26 | 239 | 1.6 | 3.2 | 0.00 | 0.00 | 0.00 | 68 | 1019.7 |
| 20260506145109 | 26 | 258 | 6.4 | 8.0 | 0.00 | 0.00 | 0.00 | 69 | 1019.6 |
| 20260506144606 | 25 | 282 | 4.8 | 8.0 | 0.00 | 0.00 | 0.00 | 69 | 1019.9 |
| 20260506144102 | 25 | 252 | 6.4 | 9.7 | 0.00 | 0.00 | 0.00 | 70 | 1019.6 |
| 20260506143600 | 25 | 265 | 8.0 | 11.3 | 0.00 | 0.00 | 0.00 | 70 | 1019.7 |
| 20260506143058 | 25 | 281 | 0.0 | 0.0 | 0.00 | 0.00 | 0.00 | 71 | 1019.7 |
| 20260506142555 | 25 | 262 | 4.8 | 8.0 | 0.00 | 0.00 | 0.00 | 71 | 1019.6 |
| 20260506142054 | 25 | 254 | 4.8 | 8.0 | 0.00 | 0.00 | 0.00 | 71 | 1019.7 |
| 20260506141551 | 25 | 226 | 1.6 | 1.6 | 0.00 | 0.00 | 0.00 | 72 | 1019.5 |
| 20260506141050 | 25 | 267 | 8.0 | 12.9 | 0.00 | 0.00 | 0.00 | 73 | 1019.8 |
| 20260506140547 | 24 | 277 | 3.2 | 4.8 | 0.00 | 0.00 | 0.00 | 73 | 1019.7 |
| 20260506140044 | 24 | 259 | 3.2 | 3.2 | 0.00 | 0.00 | 0.00 | 73 | 1019.8 |
| 20260506135540 | 24 | 270 | 3.2 | 4.8 | 0.00 | 0.00 | 0.00 | 75 | 1019.8 |
| 20260506135031 | 23 | 294 | 1.6 | 3.2 | 0.00 | 0.00 | 0.00 | 76 | 1019.6 |
| 20260506134527 | 23 | 276 | 1.6 | 3.2 | 0.00 | 0.00 | 0.00 | 75 | 1019.7 |
| 20260506134023 | 23 | 260 | 1.6 | 1.6 | 0.00 | 0.00 | 0.00 | 75 | 1019.6 |
| 20260506133521 | 23 | 254 | 1.6 | 3.2 | 0.00 | 0.00 | 0.00 | 75 | 1019.7 |
| 20260506133018 | 23 | 292 | 3.2 | 3.2 | 0.00 | 0.00 | 0.00 | 75 | 1019.7 |
| 20260506132515 | 23 | 262 | 0.0 | 0.0 | 0.00 | 0.00 | 0.00 | 77 | 1019.7 |
| 20260506132012 | 23 | 268 | 0.0 | 0.0 | 0.00 | 0.00 | 0.00 | 78 | 1019.7 |
| 20260506131509 | 22 | 257 | 4.8 | 4.8 | 0.00 | 0.00 | 0.00 | 78 | 1019.6 |
| 20260506131006 | 22 | 223 | 3.2 | 3.2 | 0.00 | 0.00 | 0.00 | 79 | 1019.6 |
| 20260506130503 | 22 | 289 | 0.0 | 1.6 | 0.00 | 0.00 | 0.00 | 80 | 1019.4 |
| 20260506130000 | 21 | 259 | 3.2 | 3.2 | 0.00 | 0.00 | 0.00 | 81 | 1019.4 |
| 20260506125458 | 21 | 269 | 1.6 | 1.6 | 0.00 | 0.00 | 0.00 | 81 | 1019.1 |
| 20260506124955 | 21 | 279 | 4.8 | 8.0 | 0.00 | 0.00 | 0.00 | 82 | 1019.3 |
| 20260506124453 | 21 | 264 | 0.0 | 0.0 | 0.00 | 0.00 | 0.00 | 82 | 1019.5 |
| 20260506123950 | 21 | 242 | 1.6 | 1.6 | 0.00 | 0.00 | 0.00 | 83 | 1019.3 |
| 20260506123448 | 21 | 263 | 0.0 | 1.6 | 0.00 | 0.00 | 0.00 | 84 | 1019.2 |
| 20260506122940 | 20 | 268 | 0.0 | 0.0 | 0.00 | 0.00 | 0.00 | 84 | 1019.4 |
| 20260506122437 | 20 | 199 | 1.6 | 1.6 | 0.00 | 0.00 | 0.00 | 84 | 1019.1 |
| 20260506121935 | 20 | 287 | 1.6 | 1.6 | 0.00 | 0.00 | 0.00 | 86 | 1019.1 |
| 20260506121432 | 19 | 267 | 0.0 | 0.0 | 0.00 | 0.00 | 0.00 | 89 | 1019.0 |
| 20260506120929 | 18 | 269 | 0.0 | 0.0 | 0.00 | 0.00 | 0.00 | 92 | 1018.6 |
| 20260506120426 | 17 | 269 | 0.0 | 0.0 | 0.00 | 0.00 | 0.00 | 93 | 1019.0 |
| 20260506115924 | 17 | 269 | 0.0 | 0.0 | 0.00 | 0.00 | 0.00 | 94 | 1018.8 |
| 20260506115421 | 17 | 269 | 0.0 | 0.0 | 0.00 | 0.00 | 0.00 | 94 | 1018.9 |
| 20260506114920 | 17 | 269 | 0.0 | 0.0 | 0.00 | 0.00 | 0.00 | 94 | 1018.8 |
| 20260506114417 | 16 | 269 | 0.0 | 0.0 | 0.00 | 0.00 | 0.00 | 94 | 1018.7 |
| 20260506113916 | 16 | 269 | 0.0 | 0.0 | 0.00 | 0.00 | 0.00 | 94 | 1019.0 |
| 20260506113413 | 16 | 269 | 0.0 | 0.0 | 0.00 | 0.00 | 0.00 | 95 | 1018.6 |
| 20260506112909 | 16 | 269 | 0.0 | 0.0 | 0.00 | 0.00 | 0.00 | 94 | 1018.5 |
| 20260506112407 | 16 | 269 | 0.0 | 0.0 | 0.00 | 0.00 | 0.00 | 94 | 1018.7 |
| 20260506111904 | 16 | 269 | 0.0 | 0.0 | 0.00 | 0.00 | 0.00 | 94 | 1018.7 |
| 20260506111402 | 16 | 269 | 0.0 | 0.0 | 0.00 | 0.00 | 0.00 | 95 | 1018.9 |
| 20260506110859 | 15 | 269 | 0.0 | 0.0 | 0.00 | 0.00 | 0.00 | 95 | 1018.6 |